Regional Weather Roundup
Issued by NWS Green Bay, WI

Home | Current Version | Previous Version | Graphics & Text | Print | Product List | Glossary Off
Versions: 1 2 3 4 5 6 7 8 9 10 11 12 13 14 15 16 17 18 19 20 21 22 23 24 25 26 27 28 29 30 31 32 33 34 35 36 37 38 39 40 41 42 43 44 45 46 47 48 49 50

117
ASUS43 KGRB 101900
RWRGRB

NORTH-CENTRAL AND NORTHEAST WISCONSIN REGIONAL WEATHER ROUNDUP
NATIONAL WEATHER SERVICE GREEN BAY WI
100 PM CST SUN DEC 10 2017

WIZ005-009-010>012-018-019-102000-
NORTH CENTRAL WISCONSIN

CITY           SKY/WX    TMP DP  RH WIND       PRES   REMARKS
IRONWOOD       FLURRIES  20  15  81 N8        29.92S
MANITOWISH WTR NOT AVBL
ARBOR VITAE    NOT AVBL
EAGLE RIVER    CLOUDY    19  14  79 NW9       29.86R WCI   8
LAND O LAKES   FLURRIES  19  15  86 N12G20    29.87S WCI   6
RHINELANDER    FLURRIES  21  18  88 N6        29.87R
PHILLIPS       CLOUDY    20  18  93 NW6       29.90S
ANTIGO         NOT AVBL
TOMAHAWK       CLOUDY    21  17  83 NW9       29.90R
MERRILL        CLOUDY    23  18  82 NW5       29.90R
$$

WIZ013-073-102000-
NORTHEAST WISCONSIN

CITY           SKY/WX    TMP DP  RH WIND       PRES   REMARKS
IRON MOUNTAIN  CLOUDY    22  15  75 NW14      29.85R WCI   9
MARINETTE      PTSUNNY   28  17  63 N17       29.89R
$$

WIZ017-030-035>037-045-102000-
CENTRAL WISCONSIN

CITY           SKY/WX    TMP DP  RH WIND       PRES   REMARKS
MEDFORD        NOT AVBL
WAUSAU         CLOUDY    23  18  81 NW8       29.89S
MOSINEE        CLOUDY    23  19  86 NW10G16   29.91R
MARSHFIELD     CLOUDY    24  19  81 NW12      29.91R
WISC RAPIDS    CLOUDY    25  19  78 N8        29.93R
STEVENS POINT  NOT AVBL
WAUPACA        CLOUDY    27  20  72 NW9       29.92R
SHAWANO        CLOUDY    27  20  73 NW7       29.90R
CLINTONVILLE   NOT AVBL
WAUTOMA        CLOUDY    26  19  74 NW10      29.93R
$$

WIZ038-039-048-051-102000-
FOX VALLEY

CITY           SKY/WX    TMP DP  RH WIND       PRES   REMARKS
NWS GREEN BAY  CLOUDY    25  20  81 NW8       29.90R
APPLETON       CLOUDY    25  16  68 NW10      29.88R
OSHKOSH        CLOUDY    26  18  71 NW13      29.90R
FOND DU LAC    CLOUDY    26  17  68 N13       29.90R
$$

WIZ022-050-052-102000-
EAST CENTRAL WISCONSIN

CITY           SKY/WX    TMP DP  RH WIND       PRES   REMARKS
EPHRAIM        CLOUDY    25  17  69 NW10G18   29.85R
WASHINGTON ISL NOT AVBL
STURGEON BAY   CLOUDY    25  18  74 NW15      29.87S
MANITOWOC      FLURRIES  24  18  77 NW14      29.89R
SHEBOYGAN      CLOUDY    25  18  74 NW14      29.89R
$$

LMZ563-521-522-541>543-102000-
LAKESHORE

STATION/POSITION TIME  TEMP    WIND        PRES    VSBY  WAVE
                       AIR SEA DIR/SP/G                  HT/PER
                 (UTC) (F)     (DEG/KT/KT) (MB)    (MI)  (FT/S)
SHEBOYGAN LKSHOR 1800   25     310/ 14/ 15 1012.4S
KEWAUNEE LKSHORE 1830   23     320/  9/ 13 1011.1R
NORTHPORT PIER   1840   27     330/ 16/ 21 1011.2R
SISTER BAY LKSHO 1805          350/ 19/ 23   N/A
MENOMINEE LKSHOR 1824   25     320/ 10/ 15 1011.5
$$




USA.gov is the U.S. government's official web portal to all federal, state and local government web resources and services.